Find Starlink 36686

NORAD ID: 68720 Int'l Des: 2026-081 Owner: SPXS Country: US Constellation: starlink operational
LEOCIRCULAR

实时位置

正在加载3D地球...

关于 Starlink 36686

正在加载描述...

即将过境

Passes for default location (London). Set your location on the main map for personalized predictions.

高度历史

Loading altitude history...

两行轨道根数

1 68720C 26081W 26105.39354167 .00629890 00000+0 80798-3 0 1059
2 68720 53.1628 237.9464 0007069 304.1023 71.6095 16.06155125 11
Epoch: Apr 15, 2026 • Age: 26 hours

当前状态

高度 265.6 km
速度 7.75 km/s
星下点 -40.76°S, 71.64°E
发射日期 Apr 14, 2026
运行时间 2 days
类型 internet

技术详情

分类 Payload
质量 575.00 kg
干质量 530.00 kg
总质量 575.00 kg
长度 0.30 m
直径 4.10 m
跨度 29.00 m
形状 Box + pan
制造商 SPXS
平台类型 Starlink V2MO
阶段状态 In Orbit
所有者/国家 SPXS/US

Most Searched